Creek Data

    Home     View Charts     View Raw Data     Messages

ID Distance Battery Voltage Battery Current Internal Temp Internal Humidity External Temp Solar Input rssi snr Time Stamp Record
34525 15.3 3.95 -9 57 45 56 3.4 -74 8 03/09/2025 07:15 PM 16258
34524 15.4 4.02 0 60 45 57 4.5 -73 7 03/09/2025 07:00 PM 16257
34523 0.0 4.05 8 64 43 60 4.5 -74 8 03/09/2025 06:45 PM 16256
34522 15.4 4.05 27 68 41 62 4.5 -73 8 03/09/2025 06:30 PM 16255
34521 15.5 4.01 5 70 40 63 5.1 -73 8 03/09/2025 06:15 PM 16254
34520 15.5 4.00 0 71 41 65 5.1 -75 7 03/09/2025 06:00 PM 16253
34519 15.5 4.00 0 71 41 64 5.1 -75 8 03/09/2025 05:45 PM 16252
34518 0.0 4.00 5 73 41 66 5.1 -74 9 03/09/2025 05:30 PM 16251
34517 0.0 4.00 5 74 42 65 5.1 -75 8 03/09/2025 05:15 PM 16250
34516 0.0 4.00 5 76 41 66 5.1 -74 9 03/09/2025 05:00 PM 16249
34515 0.0 4.00 5 79 41 68 5.1 -74 8 03/09/2025 04:45 PM 16248
34514 0.0 4.00 5 82 39 69 5.1 -74 8 03/09/2025 04:30 PM 16247
34513 15.6 4.14 5 86 37 71 5.1 -75 8 03/09/2025 04:15 PM 16246
34512 15.6 4.00 5 86 37 76 5.1 -76 8 03/09/2025 04:00 PM 16245
34511 15.6 4.10 5 86 37 74 5.1 -75 8 03/09/2025 03:45 PM 16244
34510 0.0 4.00 0 86 36 74 5.1 -75 9 03/09/2025 03:30 PM 16243
34509 0.0 4.03 5 86 36 74 5.1 -77 8 03/09/2025 03:15 PM 16242
34508 15.7 4.00 0 84 36 74 5.1 -77 7 03/09/2025 03:00 PM 16241
34507 0.0 4.00 0 84 35 73 5.1 -76 8 03/09/2025 02:45 PM 16240
34506 15.6 4.00 0 82 36 73 5.1 -75 8 03/09/2025 02:30 PM 16239
34505 15.6 4.00 0 82 35 73 5.1 -76 8 03/09/2025 02:16 PM 16238
34504 15.6 4.00 5 81 35 72 5.1 -73 8 03/09/2025 02:00 PM 16237
34503 15.6 4.00 0 79 35 71 5.1 -76 8 03/09/2025 01:45 PM 16236
34502 15.6 4.00 5 78 35 66 5.1 -76 8 03/09/2025 01:15 PM 16234
34501 15.6 4.13 5 76 35 68 5.1 -76 7 03/09/2025 01:00 PM 16233